Location: Complexul Astronomic Baia Mare
(47.6577°N, 23.5639°E)
Time: 06:55:11
(UTC+03:00)

ISS - Pass Details

Date: 23 May 2017
Orbit: 402 x 408 km, 51.6° (Epoch: 29 May)

Event Time Altitude Azimuth Distance (km) Brightness Sun altitude
Rises 22:09:14 0° 199° (SSW) 2,320 -0.2 -9.0°
Reaches altitude 10° 22:11:51 10° 177° (S) 1,464 -1.4 -9.4°
Maximum altitude 22:13:58 16° 137° (SE) 1,152 -2.2 -9.6°
Drops below altitude 10° 22:16:05 10° 97° (E) 1,468 -1.5 -9.8°
Sets 22:18:43 0° 75° (ENE) 2,332 -0.2 -10.2°
